Stations météo

réclame
Mon MeteoGroup
Barcelona/Aeropuerto, Espagne (8181): Température de l'air & dewpoint: 10.01.2018 10:00:00 - 16.01.2018 10:00:00 (CET)Barcelona/Aeropuerto, Espagne (8181): Vitesse du vent: 10.01.2018 10:00:00 - 16.01.2018 10:00:00 (CET)Barcelona/Aeropuerto, Espagne (8181): Direction du vent: 10.01.2018 10:00:00 - 16.01.2018 10:00:00 (CET)Barcelona/Aeropuerto, Espagne (8181): reduced air pressure: 10.01.2018 10:00:00 - 16.01.2018 10:00:00 (CET)Barcelona/Aeropuerto, Espagne (8181): visibility: 10.01.2018 10:00:00 - 16.01.2018 10:00:00 (CET)
Date & Time tt [°C] td [°C] ff [km/h] ff [knt] dd ppp [hPa] vv [km]
16.01.2018 10:00:00 - - - - - - -
16.01.2018 09:00:00 10,8 1,4 4 2 WSW 1021,1 30
16.01.2018 08:00:00 10,2 1,6 22 12 W 1020,5 30
16.01.2018 07:00:00 10,4 1,4 24 13 W 1020,8 30
16.01.2018 06:00:00 9,1 1,7 16 9 W 1021,0 30
16.01.2018 05:00:00 9,1 1,5 11 6 W 1021,4 30
16.01.2018 04:00:00 8,3 2,5 11 6 W 1021,6 30
16.01.2018 03:00:00 9,9 1,8 15 8 W 1022,5 30
16.01.2018 02:00:00 9,4 1,8 13 7 WSW 1022,6 30
16.01.2018 01:00:00 9,9 2,2 8 4 WSW 1023,3 30
16.01.2018 00:00:00 10,5 2,3 22 12 W 1023,8 30
15.01.2018 23:00:00 10,0 2,8 16 9 W 1024,0 30
15.01.2018 22:00:00 10,8 3,3 21 11 W 1023,9 30
15.01.2018 21:00:00 10,4 3,2 13 7 WSW 1024,1 30
15.01.2018 20:00:00 10,1 3,6 18 10 WSW 1023,1 30
15.01.2018 19:00:00 9,1 3,5 13 7 NNW 1023,6 30
15.01.2018 18:00:00 9,5 3,7 13 7 NNE 1023,5 30
15.01.2018 17:00:00 11,1 4,0 15 8 N 1023,4 30
15.01.2018 16:00:00 12,8 6,2 18 10 WSW 1023,1 30
15.01.2018 15:00:00 13,4 4,2 4 2 SSE 1022,9 30
15.01.2018 14:00:00 12,9 4,2 4 2 NW 1023,4 30
15.01.2018 13:00:00 11,6 4,1 18 10 N 1024,6 20
15.01.2018 12:00:00 10,7 4,2 18 10 N 1025,5 25
15.01.2018 11:00:00 9,3 3,7 21 11 N 1025,5 19
15.01.2018 10:00:00 6,9 3,0 18 10 N 1024,9 15
15.01.2018 09:00:00 5,2 2,4 15 8 N 1024,3 19
15.01.2018 08:00:00 4,9 2,3 16 9 N 1023,6 18
15.01.2018 07:00:00 4,9 2,3 21 11 N 1023,0 18
15.01.2018 06:00:00 5,0 2,4 18 10 N 1022,2 19
15.01.2018 05:00:00 5,1 2,4 16 9 N 1022,2 18
15.01.2018 04:00:00 5,6 2,8 15 8 N 1021,9 20
15.01.2018 03:00:00 5,7 2,9 11 6 N 1021,4 23
15.01.2018 02:00:00 6,3 2,9 11 6 N 1021,3 23
15.01.2018 01:00:00 6,5 3,1 13 7 NNW 1021,0 25
15.01.2018 00:00:00 7,0 3,2 18 10 N 1021,0 30
14.01.2018 23:00:00 7,2 3,2 15 8 N 1020,4 30
14.01.2018 22:00:00 7,5 3,4 13 7 N 1020,0 30
14.01.2018 21:00:00 7,8 3,6 13 7 N 1019,7 30
14.01.2018 20:00:00 8,2 3,6 11 6 WNW 1019,1 30
14.01.2018 19:00:00 8,5 3,7 9 5 WNW 1017,9 30
14.01.2018 18:00:00 9,7 3,6 11 6 NNW 1017,4 30
14.01.2018 17:00:00 11,3 4,0 15 8 WNW 1016,6 30
14.01.2018 16:00:00 11,4 4,4 15 8 NNW 1016,2 30
14.01.2018 15:00:00 12,2 4,5 16 9 NW 1015,6 30
14.01.2018 14:00:00 12,0 4,8 18 10 NW 1015,4 30
14.01.2018 13:00:00 11,0 4,6 21 11 NW 1015,7 25
14.01.2018 12:00:00 10,6 5,0 21 11 NW 1016,3 30
14.01.2018 11:00:00 10,1 4,6 15 8 NNW 1016,2 30
14.01.2018 10:00:00 8,8 4,1 13 7 NW 1015,8 25
14.01.2018 09:00:00 7,5 3,9 13 7 WNW 1015,0 30
14.01.2018 08:00:00 7,5 3,9 11 6 NW 1014,6 30
14.01.2018 07:00:00 8,2 5,0 13 7 N 1014,1 20
14.01.2018 06:00:00 8,8 5,9 13 7 NNW 1014,1 24
14.01.2018 05:00:00 8,1 6,4 11 6 NNW 1013,7 22
14.01.2018 04:00:00 8,9 7,7 9 5 N 1014,2 12
14.01.2018 03:00:00 9,4 7,8 9 5 N 1014,3 18
14.01.2018 02:00:00 10,6 8,0 9 5 NW 1014,6 19
14.01.2018 01:00:00 11,0 8,5 29 16 SW 1015,3 7
14.01.2018 00:00:00 12,6 7,0 35 19 SW 1015,7 12
13.01.2018 23:00:00 10,6 9,2 8 4 SSW 1016,2 21
13.01.2018 22:00:00 10,3 7,9 8 4 NNW 1016,7 7
13.01.2018 21:00:00 12,8 9,0 15 8 WSW 1016,9 26
13.01.2018 20:00:00 13,0 9,6 15 8 WSW 1017,2 25
13.01.2018 19:00:00 13,8 8,8 15 8 S 1017,1 25
13.01.2018 18:00:00 13,6 8,2 15 8 SSW 1017,5 30
13.01.2018 17:00:00 13,5 7,5 21 11 SW 1017,7 30
13.01.2018 16:00:00 12,3 4,8 8 4 E 1018,1 25
13.01.2018 15:00:00 12,5 4,2 4 2 NNE 1018,8 30
13.01.2018 14:00:00 12,5 3,7 8 4 NNE 1019,6 24
13.01.2018 13:00:00 10,3 1,9 15 8 N 1020,6 25
13.01.2018 12:00:00 9,2 1,7 15 8 N 1021,4 25
13.01.2018 11:00:00 7,5 1,1 16 9 N 1021,8 26
13.01.2018 10:00:00 4,9 -0,1 22 12 N 1021,7 25
13.01.2018 09:00:00 3,8 -0,2 21 11 N 1021,4 20
13.01.2018 08:00:00 3,0 -0,4 22 12 N 1021,4 24
13.01.2018 07:00:00 3,4 -0,3 24 13 N 1021,5 22
13.01.2018 06:00:00 3,3 0,0 22 12 N 1021,7 19
13.01.2018 05:00:00 4,0 0,3 22 12 N 1022,0 21
13.01.2018 04:00:00 4,3 0,6 22 12 N 1022,4 20
13.01.2018 03:00:00 4,3 0,4 22 12 N 1022,9 20
13.01.2018 02:00:00 5,0 0,9 22 12 N 1023,2 21
13.01.2018 01:00:00 5,6 1,5 22 12 N 1023,5 20
13.01.2018 00:00:00 6,7 1,8 16 9 N 1023,8 22
12.01.2018 23:00:00 6,3 1,8 13 7 N 1024,0 17
12.01.2018 22:00:00 6,1 1,2 5 3 N 1023,9 20
12.01.2018 21:00:00 6,8 1,1 4 2 WNW 1023,8 21
12.01.2018 20:00:00 7,5 1,2 9 5 N 1023,4 24
12.01.2018 19:00:00 8,8 2,4 8 4 NW 1023,0 30
12.01.2018 18:00:00 12,2 2,1 5 3 SE 1022,4 30
12.01.2018 17:00:00 13,0 2,2 8 4 ESE 1022,1 30
12.01.2018 16:00:00 13,1 3,4 8 4 ESE 1021,8 35
12.01.2018 15:00:00 13,1 1,3 15 8 N 1021,5 21
12.01.2018 14:00:00 12,5 0,9 16 9 N 1021,8 30
12.01.2018 13:00:00 11,6 0,4 16 9 N 1021,9 35
12.01.2018 12:00:00 10,2 0,4 15 8 N 1022,7 30
12.01.2018 11:00:00 8,3 0,5 18 10 NNW 1022,9 30
12.01.2018 10:00:00 6,8 0,7 21 11 N 1022,4 30
12.01.2018 09:00:00 5,8 0,9 4 2 NNE 1021,7 30
12.01.2018 08:00:00 5,1 1,0 18 10 N 1021,5 30
12.01.2018 07:00:00 5,5 1,0 18 10 N 1021,3 30
12.01.2018 06:00:00 5,5 1,2 21 11 NNW 1020,4 30
12.01.2018 05:00:00 6,0 1,1 18 10 NNW 1020,0 30
12.01.2018 04:00:00 6,6 1,3 16 9 N 1020,0 30
12.01.2018 03:00:00 7,0 1,5 13 7 NNW 1019,7 30
12.01.2018 02:00:00 7,5 1,3 18 10 NNW 1019,5 30
12.01.2018 01:00:00 7,9 1,5 15 8 NW 1019,3 30
12.01.2018 00:00:00 8,5 1,4 22 12 N 1019,1 30
11.01.2018 23:00:00 9,1 1,3 21 11 N 1018,8 30
11.01.2018 22:00:00 9,1 1,5 13 7 NNW 1018,3 30
11.01.2018 21:00:00 9,4 1,5 5 3 NNE 1017,6 30
11.01.2018 20:00:00 10,4 1,5 11 6 N 1017,3 30
11.01.2018 19:00:00 11,4 1,6 11 6 N 1016,9 30
11.01.2018 18:00:00 12,2 1,8 8 4 NNW 1016,2 30
11.01.2018 17:00:00 13,8 1,1 15 8 NNW 1015,5 30
11.01.2018 16:00:00 14,3 0,9 16 9 NNW 1014,6 35
11.01.2018 15:00:00 13,9 1,1 21 11 NNW 1014,2 30
11.01.2018 14:00:00 13,5 0,3 29 16 N 1014,0 30
11.01.2018 13:00:00 13,1 0,2 16 9 N 1014,2 40
11.01.2018 12:00:00 12,5 -0,1 22 12 NNW 1014,8 30
11.01.2018 11:00:00 11,2 0,5 13 7 N 1015,0 30
11.01.2018 10:00:00 10,5 0,3 8 4 N 1014,9 40
11.01.2018 09:00:00 8,6 0,8 13 7 N 1014,5 30
11.01.2018 08:00:00 8,4 1,3 9 5 N 1014,3 30
11.01.2018 07:00:00 8,4 1,7 11 6 N 1014,3 25
11.01.2018 06:00:00 9,1 2,6 9 5 NNW 1014,0 30
11.01.2018 05:00:00 10,0 2,8 16 9 NNW 1013,7 30
11.01.2018 04:00:00 10,3 3,6 15 8 NNW 1013,8 25
11.01.2018 03:00:00 10,3 3,6 13 7 NW 1013,2 30
11.01.2018 02:00:00 11,2 3,5 18 10 WNW 1013,2 30
11.01.2018 01:00:00 11,7 3,3 22 12 W 1013,3 30
11.01.2018 00:00:00 12,0 3,6 18 10 W 1013,8 30
10.01.2018 23:00:00 12,0 3,7 13 7 WSW 1013,9 30
10.01.2018 22:00:00 12,2 3,9 16 9 W 1013,9 30
10.01.2018 21:00:00 11,2 3,7 11 6 W 1014,1 30
10.01.2018 20:00:00 10,9 3,4 15 8 WNW 1014,2 30
10.01.2018 19:00:00 11,3 2,7 11 6 WNW 1014,2 30
10.01.2018 18:00:00 12,5 2,3 16 9 WNW 1014,0 30
10.01.2018 17:00:00 14,5 2,8 22 12 WNW 1014,0 30
10.01.2018 16:00:00 14,1 5,4 16 9 SW 1014,0 30
10.01.2018 15:00:00 13,1 5,0 15 8 SW 1013,8 30
10.01.2018 14:00:00 14,0 2,6 5 3 SW 1014,4 29
10.01.2018 13:00:00 12,5 2,3 15 8 N 1015,1 30
10.01.2018 12:00:00 11,1 1,9 18 10 N 1016,1 28
10.01.2018 11:00:00 9,8 1,7 21 11 N 1016,8 30
10.01.2018 10:00:00 7,1 1,4 18 10 N 1016,9 21

tt = Température de l'air
td = dewpoint
ff = Vitesse du vent
dd = Direction du vent
ppp = reduced air pressure
vv = visibility

stations d'obs. à proximité